When you browse on this site, cookies collect data to enhance your experience and personalize the content and advertising you see.
Visit our Privacy Policy to learn more. By continuing to use the site, you agree to this use of cookies and data.
EN

Hourly Weather Dalat

Today, 10 July, Friday

Time Temperature Precipitation Wind Pressure Humidity
00:00 +17°C° 0 mm 0 mps 650 mmHg 96%
01:00 +17°C° 0 mm 0 mps 650 mmHg 97%
02:00 +17°C° 0 mm 0 mps 650 mmHg 97%
03:00 +17°C° 0 mm 0 mps 649 mmHg 96%
04:00 +17°C° 0 mm 0 mps 649 mmHg 96%
05:00 +18°C° 0 mm 0 mps 650 mmHg 93%
06:00 +19°C° 0 mm 0 mps 650 mmHg 91%
07:00 +19°C° 0 mm 0 mps 651 mmHg 88%
08:00 +22°C° 0 mm 0 mps 652 mmHg 77%
09:00 +26°C° 0 mm 1 mps 653 mmHg 66%
10:00 +28°C° 0 mm 1 mps 653 mmHg 56%
11:00 +28°C° 0.5 mm 1 mps 653 mmHg 63%
12:00 +27°C° 0.5 mm 1 mps 652 mmHg 70%
13:00 +27°C° 0 mm 1 mps 652 mmHg 78%
14:00 +26°C° 1.7 mm 1 mps 651 mmHg 82%
15:00 +25°C° 1.7 mm 1 mps 651 mmHg 87%
16:00 +24°C° 1.7 mm 1 mps 650 mmHg 91%
17:00 +23°C° 0.8 mm 1 mps 650 mmHg 93%
18:00 +22°C° 0.8 mm 1 mps 650 mmHg 95%
19:00 +19°C° 0.8 mm 0 mps 650 mmHg 97%
20:00 +18°C° 0.5 mm 0 mps 650 mmHg 97%
21:00 +18°C° 0.5 mm 0 mps 651 mmHg 97%
22:00 +18°C° 0.5 mm 0 mps 651 mmHg 97%
23:00 +18°C° 0.2 mm 0 mps 651 mmHg 97%

Tomorrow, 11 July, Saturday

Time Temperature Precipitation Wind Pressure Humidity
00:00 +17°C° 0.2 mm 0 mps 650 mmHg 97%
01:00 +17°C° 0.2 mm 0 mps 650 mmHg 97%
02:00 +17°C° 0 mm 0 mps 650 mmHg 97%
03:00 +19°C° 0 mm 1 mps 650 mmHg 96%
04:00 +19°C° 0 mm 1 mps 649 mmHg 96%
05:00 +19°C° 0 mm 1 mps 650 mmHg 95%
06:00 +20°C° 0 mm 1 mps 650 mmHg 93%
07:00 +21°C° 0 mm 1 mps 651 mmHg 92%
08:00 +23°C° 0.1 mm 1 mps 651 mmHg 81%
09:00 +26°C° 0.1 mm 1 mps 652 mmHg 70%
10:00 +28°C° 0.1 mm 1 mps 653 mmHg 59%
11:00 +28°C° 1.1 mm 1 mps 653 mmHg 64%
12:00 +27°C° 1.1 mm 1 mps 652 mmHg 70%
13:00 +27°C° 1.1 mm 1 mps 652 mmHg 76%
14:00 +26°C° 1.5 mm 1 mps 651 mmHg 80%
15:00 +25°C° 1.5 mm 1 mps 650 mmHg 85%
16:00 +24°C° 1.5 mm 1 mps 650 mmHg 89%
17:00 +23°C° 1.2 mm 1 mps 650 mmHg 92%
18:00 +22°C° 1.2 mm 1 mps 650 mmHg 94%
19:00 +21°C° 1.2 mm 1 mps 650 mmHg 97%
20:00 +20°C° 0.3 mm 1 mps 650 mmHg 97%
21:00 +20°C° 0.3 mm 1 mps 651 mmHg 98%
22:00 +20°C° 0.3 mm 1 mps 651 mmHg 98%
23:00 +20°C° 0 mm 1 mps 651 mmHg 98%

Day after tomorrow, 12 July, Sunday

Time Temperature Precipitation Wind Pressure Humidity
00:00 +20°C° 0 mm 1 mps 651 mmHg 98%
01:00 +19°C° 0 mm 1 mps 651 mmHg 98%
02:00 +19°C° 0.1 mm 1 mps 650 mmHg 97%
03:00 +19°C° 0.1 mm 1 mps 650 mmHg 97%
04:00 +19°C° 0.1 mm 1 mps 650 mmHg 96%
05:00 +20°C° 0.1 mm 1 mps 650 mmHg 95%
06:00 +18°C° 0.1 mm 0 mps 651 mmHg 93%
07:00 +19°C° 0.1 mm 0 mps 651 mmHg 91%
08:00 +23°C° 0.2 mm 1 mps 652 mmHg 83%
09:00 +25°C° 0.2 mm 1 mps 652 mmHg 74%
10:00 +27°C° 0.2 mm 1 mps 653 mmHg 65%
11:00 +26°C° 1.6 mm 1 mps 652 mmHg 72%
12:00 +25°C° 1.6 mm 1 mps 652 mmHg 79%
13:00 +25°C° 1.6 mm 1 mps 651 mmHg 86%
14:00 +24°C° 2.1 mm 1 mps 651 mmHg 89%
15:00 +23°C° 2.1 mm 1 mps 650 mmHg 91%
16:00 +23°C° 2.1 mm 1 mps 650 mmHg 93%
17:00 +22°C° 0.5 mm 1 mps 650 mmHg 95%
18:00 +21°C° 0.5 mm 1 mps 650 mmHg 96%
19:00 +20°C° 0.5 mm 1 mps 650 mmHg 98%
20:00 +19°C° 0 mm 1 mps 650 mmHg 97%
21:00 +19°C° 0 mm 1 mps 651 mmHg 97%
22:00 +19°C° 0 mm 1 mps 651 mmHg 97%
23:00 +19°C° 0 mm 1 mps 651 mmHg 96%

13 July, Monday

Time Temperature Precipitation Wind Pressure Humidity
00:00 +19°C° 0 mm 1 mps 650 mmHg 94%
01:00 +17°C° 0 mm 0 mps 650 mmHg 93%
02:00 +17°C° 0 mm 0 mps 650 mmHg 92%
03:00 +17°C° 0 mm 0 mps 650 mmHg 91%
04:00 +17°C° 0 mm 0 mps 650 mmHg 90%
05:00 +18°C° 0 mm 0 mps 650 mmHg 88%
06:00 +18°C° 0 mm 0 mps 651 mmHg 86%
07:00 +19°C° 0 mm 0 mps 651 mmHg 84%
08:00 +23°C° 0 mm 1 mps 652 mmHg 75%
09:00 +25°C° 0 mm 1 mps 653 mmHg 66%
10:00 +27°C° 0 mm 2 mps 653 mmHg 57%
11:00 +27°C° 1.4 mm 1 mps 653 mmHg 65%
12:00 +26°C° 1.4 mm 1 mps 652 mmHg 73%
13:00 +25°C° 1.4 mm 1 mps 652 mmHg 81%
14:00 +25°C° 1.3 mm 1 mps 651 mmHg 84%
15:00 +24°C° 1.3 mm 1 mps 651 mmHg 87%
16:00 +24°C° 1.3 mm 1 mps 650 mmHg 90%
17:00 +22°C° 0.1 mm 1 mps 650 mmHg 92%
18:00 +21°C° 0.1 mm 1 mps 650 mmHg 95%
19:00 +20°C° 0.1 mm 1 mps 650 mmHg 98%
20:00 +20°C° 0 mm 1 mps 651 mmHg 98%
21:00 +17°C° 0 mm 0 mps 651 mmHg 98%
22:00 +17°C° 0 mm 0 mps 652 mmHg 98%
23:00 +17°C° 0 mm 0 mps 651 mmHg 97%

14 July, Tuesday

Time Temperature Precipitation Wind Pressure Humidity
00:00 +17°C° 0 mm 0 mps 651 mmHg 97%
01:00 +18°C° 0 mm 1 mps 651 mmHg 97%
02:00 +16°C° 0 mm 0 mps 650 mmHg 96%
03:00 +16°C° 0 mm 0 mps 650 mmHg 95%
04:00 +16°C° 0 mm 0 mps 650 mmHg 95%
05:00 +17°C° 0 mm 0 mps 650 mmHg 93%
06:00 +18°C° 0 mm 0 mps 651 mmHg 90%
07:00 +19°C° 0 mm 0 mps 652 mmHg 88%
08:00 +21°C° 0 mm 0 mps 652 mmHg 77%
09:00 +25°C° 0 mm 1 mps 653 mmHg 66%
10:00 +28°C° 0 mm 1 mps 654 mmHg 55%
11:00 +27°C° 0.4 mm 1 mps 653 mmHg 60%
12:00 +27°C° 0.4 mm 2 mps 653 mmHg 64%
13:00 +27°C° 0.4 mm 2 mps 652 mmHg 68%
14:00 +26°C° 1.1 mm 2 mps 652 mmHg 75%
15:00 +25°C° 1.1 mm 1 mps 651 mmHg 81%
16:00 +24°C° 1.1 mm 1 mps 650 mmHg 88%
17:00 +23°C° 0.4 mm 1 mps 650 mmHg 92%
18:00 +22°C° 0.4 mm 1 mps 651 mmHg 95%
19:00 +18°C° 0.4 mm 0 mps 651 mmHg 98%
20:00 +18°C° 0.2 mm 0 mps 651 mmHg 98%
21:00 +18°C° 0.2 mm 0 mps 651 mmHg 98%
22:00 +18°C° 0.2 mm 0 mps 652 mmHg 98%
23:00 +17°C° 0 mm 0 mps 651 mmHg 98%

15 July, Wednesday

Time Temperature Precipitation Wind Pressure Humidity
00:00 +17°C° 0 mm 0 mps 651 mmHg 97%
01:00 +16°C° 0 mm 0 mps 650 mmHg 97%
02:00 +16°C° 0 mm 0 mps 650 mmHg 96%
03:00 +16°C° 0 mm 0 mps 650 mmHg 95%
04:00 +18°C° 0 mm 1 mps 650 mmHg 94%
05:00 +17°C° 0 mm 0 mps 650 mmHg 92%
06:00 +18°C° 0 mm 0 mps 651 mmHg 89%
07:00 +19°C° 0 mm 0 mps 651 mmHg 87%
08:00 +21°C° 0 mm 0 mps 652 mmHg 76%
09:00 +26°C° 0 mm 1 mps 653 mmHg 66%
10:00 +28°C° 0 mm 1 mps 654 mmHg 55%
11:00 +28°C° 0.4 mm 1 mps 653 mmHg 59%
12:00 +28°C° 0.4 mm 1 mps 653 mmHg 63%
13:00 +28°C° 0.4 mm 1 mps 652 mmHg 66%
14:00 +27°C° 1.1 mm 1 mps 651 mmHg 72%
15:00 +26°C° 1.1 mm 1 mps 651 mmHg 78%
16:00 +25°C° 1.1 mm 1 mps 650 mmHg 84%
17:00 +21°C° 0.3 mm 0 mps 650 mmHg 89%
18:00 +20°C° 0.3 mm 0 mps 650 mmHg 93%
19:00 +19°C° 0.3 mm 0 mps 650 mmHg 98%
20:00 +18°C° 0 mm 0 mps 650 mmHg 98%
21:00 +18°C° 0 mm 0 mps 650 mmHg 98%
22:00 +18°C° 0 mm 0 mps 651 mmHg 98%
23:00 +18°C° 0 mm 0 mps 651 mmHg 98%
Show more